Regional Weather Roundup
Issued by NWS Sterling, VA

Home | Current Version | Previous Version | Graphics & Text | Print | Product List | Glossary On
Versions: 1 2 3 4 5 6 7 8 9 10 11 12 13 14 15 16 17 18 19 20 21 22 23 24 25 26 27 28 29 30 31 32 33 34 35 36 37 38 39 40 41 42 43 44 45 46 47 48 49 50
000
ASUS41 KLWX 300010
RWRLWX

REGIONAL WEATHER ROUNDUP
NATIONAL WEATHER SERVICE BALTIMORE MD/WASHINGTON DC
800 PM EDT FRI AUG 29 2014

Note: "FAIR" indicates few or no clouds below 12,000 feet
with no significant weather and/or obstructions to visibility.
 TC=TEMPERATURE CELSIUS

 * =Non NWS site. Station does not report precipitation (e.g. rain,
    snow, etc.), thunder, or fog.

DCZ001-MDZ009-015-VAZ040>042-051-053>054-300100-
WASHINGTON METRO
  /KDAA//-FT BELVOIR

CITY           SKY/WX    TMP DP  RH WIND       PRES   REMARKS
WASHINGTON NAT MOCLDY    76  50  40 E5        30.17R
DULLES         PTCLDY    71  59  65 SE7       30.16R
ANDREWS AFB    CLEAR     69  56  63 E5        30.17R
QUANTICO       CLEAR     75  60  59 SE9       30.17R
COLLEGE PARK*  CLEAR     70  55  60 CALM      30.17S
LEESBURG*      CLEAR     75  61  60 CALM      30.17R
MANASSAS*      CLEAR     72  64  78 SE5       30.15S
GAITHERSBURG*  CLEAR     68  54  60 SE5       30.22R

$$

MDZ006>007-011-014-300100-
BALTIMORE METRO

CITY           SKY/WX    TMP DP  RH WIND       PRES   REMARKS
BWI AIRPORT    MOCLDY    71  56  58 CALM      30.17R
MD SCIENCE CTR   N/A     75  53  46 MISG      30.18R
MARTIN STATE   PTCLDY    72  61  68 CALM      30.18F
ANNAPOLIS      CLEAR     72  59  63 E3        30.17S
FORT MEADE*    CLEAR     63  57  82 CALM      30.19S

$$

MDZ012-015-019>023-300100-
MARYLAND EASTERN SHORE

CITY           SKY/WX    TMP DP  RH WIND       PRES   REMARKS
OCEAN CITY     CLEAR     71  60  68 E6        30.19R
SALISBURY      CLEAR     71  60  68 E6        30.19R
BAY BRIDGE AP*   N/A     72  55  56 E3        30.18R
CAMBRIDGE*     CLEAR     72  59  64 E5        30.18R
EASTON*          N/A     73  59  60 CALM      30.22R

$$

MDZ017>025-300100-
SOUTHERN MARYLAND

CITY           SKY/WX    TMP DP  RH WIND       PRES   REMARKS
PATUXENT RIVER PTCLDY    69  57  65 CALM      30.17R
ST INIGOES     CLEAR     66  58  75 E3        30.16S
LEONARDTOWN*   CLEAR     68  54  60 CALM      30.19R

$$

MDZ003>005-300100-
NORTH CENTRAL MARYLAND

CITY           SKY/WX    TMP DP  RH WIND       PRES   REMARKS
FREDERICK*     CLEAR     70  64  83 CALM      30.19
HAGERSTOWN APT CLEAR     71  55  56 E6        30.17R
WESTMINSTER*   CLEAR     72  55  56 SE3       30.19R

$$

MDZ501>502-300100-
WESTERN MARYLAND

CITY           SKY/WX    TMP DP  RH WIND       PRES   REMARKS
OAKLAND*       CLEAR     64  59  82 SE8       30.20S
CUMBERLAND*    CLEAR     73  54  49 E3        30.18R

$$

VAZ025>031-300100-
SHENANDOAH VALLEY

CITY           SKY/WX    TMP DP  RH WIND       PRES   REMARKS
WINCHESTER*    CLEAR     70  57  64 E5        30.16R
STAUNTON*      CLEAR     74  60  61 CALM      30.18S

$$

WVZ021-048>050-054>055-300100-
EASTERN WEST VIRGINIA PANHANDLE

CITY           SKY/WX    TMP DP  RH WIND       PRES   REMARKS
MARTINSBURG    CLEAR     72  56  57 E3        30.16S
PETERSBURG*    NOT AVBL

$$

VAZ036>039-050-300100-
CENTRAL FOOTHILLS

CITY           SKY/WX    TMP DP  RH WIND       PRES   REMARKS
CHARLOTTESVILL CLEAR     74  62  66 S3        30.15R
ORANGE*        CLEAR     70  63  78 CALM      30.16S

$$

VAZ055>057-300100-
NORTH AND CENTRAL PIEDMONT

CITY           SKY/WX    TMP DP  RH WIND       PRES   REMARKS
FREDERICKSBRG* CLEAR     76  61  60 CALM      30.14S
STAFFORD*      CLEAR     72  62  70 NE5       30.19S

$$

NCZ024-NYZ072-PAZ021-071-VAZ022-071-300100-
OTHER REGIONAL OBSERVATIONS

CITY           SKY/WX    TMP DP  RH WIND       PRES   REMARKS
NEW YORK CITY  PTCLDY    70  53  54 VRB7      30.23R
PHILADELPHIA   MOCLDY    73  59  61 SE7       30.19R
PITTSBURGH     PTCLDY    75  51  43 CALM      30.10F
ROANOKE        MOCLDY    75  64  68 SE8       30.18R
RICHMOND       MOCLDY    77  62  59 SE10      30.15R
RALEIGH        PTCLDY    78  70  76 E6        30.13R

$$

ANZ530>537-300100-
MARINE OBSERVATIONS

STATION/POSITION TIME  TEMP    WIND        PRES
                       AIR SEA DIR/SP/G
                 (UTC) (F)     (DEG/KT/KT) (MB)
THOMAS PT LIGHT  0000   74 77   70/  8/  9 1022.7R
BALT KEY BRIDGE  0000   82      90/  6/  7 1021.4R
COVE POINT       0000   76     120/  4/  5 1021.4R
LEWISETTA        0000   75 79  130/  7/ 10 1021.0R
SOLOMONS ISLAND  0000      81                N/A
PINEY POINT      0000          110/  6/  8   N/A

$$




USA.gov is the U.S. government's official web portal to all federal, state and local government web resources and services.